Regional Weather Roundup
Issued by NWS

Home | Current Version | Previous Version | Graphics & Text | Print | Product List | Glossary On
Versions: 1 2 3 4 5 6 7 8 9 10 11 12 13 14 15 16 17 18 19 20 21 22 23 24 25 26 27 28 29 30 31 32 33 34 35 36 37 38 39 40 41 42 43 44 45 46 47 48 49 50
000
ASUS43 KDMX 011807
RWRIA

WEATHER ROUNDUP FOR IOWA
NATIONAL WEATHER SERVICE DES MOINES IA
1200 PM CST SUN MAR 01 2015

NOTE: "FAIR" INDICATES FEW OR NO CLOUDS BELOW 12,000 FEET WITH NO
SIGNIFICANT WEATHER AND/OR OBSTRUCTIONS TO VISIBILITY.

* - THESE STATIONS ARE NOT NWS STATIONS...THUS NOT UNDER NWS
QUALITY CONTROL.  THEY ALSO DO NOT REPORT WEATHER SUCH
AS PRECIPITATION OR FOG.

IAZ001>003-012>014-020>022-031>034-043>046-011900-
   NORTHWEST IOWA

CITY           SKY/WX    TMP DP  RH WIND       PRES   REMARKS
CARROLL *      SUNNY     27  16  63 NW12      30.35S WCI  16
CHEROKEE *     PTSUNNY   25  15  63 W13       30.35F WCI  14
DENISON *      SUNNY     27  14  59 NW10      30.35R WCI  17
LE MARS *      PTSUNNY   28  18  64 W10       30.37S WCI  19
ORANGE CITY *  SUNNY     27  16  63 W12       30.33F WCI  16
SHELDON *      MOSUNNY   27  14  59 W15G22    30.32S WCI  15
SIOUX CITY     CLOUDY    30  16  56 NW9       30.37F WCI  22
6HR MIN TEMP:  12; 6HR MAX TEMP:  30;

SPENCER        MOSUNNY   26  13  57 W21       30.33S WCI  12
6HR MIN TEMP:  10; 6HR MAX TEMP:  26;

STORM LAKE *   SUNNY     25  12  58 NW14      30.34S WCI  13
$$

IAZ055>058-069>071-079>083-090>094-011900-
   SOUTHWEST IOWA

CITY           SKY/WX    TMP DP  RH WIND       PRES   REMARKS
ATLANTIC *     SUNNY     28  19  69 NW5       30.37S WCI  23
AUDUBON *      SUNNY     28  19  69 NW6       30.37R WCI  22
CLARINDA *     SUNNY     30  21  69 VRB5G14   30.41S WCI  25
COUNCIL BLFS * SUNNY     30  19  64 N7        30.36F WCI  23
CRESTON *      MOSUNNY   28  21  74 W9        30.36S WCI  20
HARLAN  *      SUNNY     28  19  69 NW7       30.40F WCI  21
LAMONI         PTSUNNY   27  18  69 W8        30.38R WCI  19
6HR MIN TEMP:  19; 6HR MAX TEMP:  27; 6HR PCP:  0.01;

RED OAK *      SUNNY     32  23  69 NW8G14    30.39S WCI  25
SHENANDOAH *   SUNNY     30  21  69 W6G12     30.40F WCI  24
$$

IAZ047>049-059>061-072>074-084-011900-
   CENTRAL IOWA

CITY           SKY/WX    TMP DP  RH WIND       PRES   REMARKS
AMES           MOSUNNY   26  17  68 NW12      30.35F WCI  16
6HR MIN TEMP:  11; 6HR MAX TEMP:  27;

ANKENY *       MOSUNNY   28  19  69 W10G17    30.37S WCI  19
CHARITON *     PTSUNNY   27  18  69 W6        30.37S WCI  20
DES MOINES     MOSUNNY   29  17  61 W10       30.37R WCI  20
6HR MIN TEMP:  21; 6HR MAX TEMP:  30; 6HR PCP: TRACE;

GRINNELL*      MOSUNNY   26  19  72 SW9       30.36S WCI  17
KNOXVILLE *    SUNNY     27  18  69 W10       30.36S WCI  17
MARSHALLTOWN   MOSUNNY   24  17  74 W15       30.34R WCI  11
6HR MIN TEMP:  11; 6HR MAX TEMP:  25;

PELLA *        SUNNY     29  21  73 W8        30.38S WCI  21
PERRY *          N/A     28  21  74 NW7       30.36S WCI  21
$$

IAZ004>006-015-016-023>025-035-036-011900-
   NORTH CENTRAL IOWA

CITY           SKY/WX    TMP DP  RH WIND       PRES   REMARKS
ALGONA *       SUNNY     25  10  54 NW16      30.33S WCI  12
CLARION *      MOSUNNY   23  18  80 NW12      30.33F WCI  12
ESTHERVILLE    SUNNY     24  12  60 W17       30.31S WCI  11
6HR MIN TEMP:  11; 6HR MAX TEMP:  24;

FORT DODGE *   MOSUNNY   25  14  63 NW9       30.35S WCI  15
MASON CITY     MOSUNNY   21  13  71 W13       30.32S WCI   9
6HR MIN TEMP:  11; 6HR MAX TEMP:  21;

FOREST CITY *  SUNNY     23  10  58 NW14G21   30.31S WCI  11
IOWA FALLS *     N/A     25  18  74 W10       30.34S HAZE    WCI  15
$$

IAZ007>011-017>019-026>030-037>042-050>054-066-011900-
   NORTHEAST IOWA

CITY           SKY/WX    TMP DP  RH WIND       PRES   REMARKS
CEDAR RAPIDS   SUNNY     24  17  74 W10       30.34F WCI  14
6HR MIN TEMP:  13; 6HR MAX TEMP:  24; 6HR PCP: TRACE;

CHARLES CITY * PTSUNNY   21  12  68 W13       30.31S WCI   9
CLINTON *      CLOUDY    19  18  93 W6        30.40F WCI  11
DECORAH *      CLOUDY    21  14  73 W12       30.28S WCI   9
DUBUQUE        MOSUNNY   21  15  78 SW12      30.31F WCI   9
6HR MIN TEMP:   9; 6HR MAX TEMP:  21;

MONTICELLO *   MOSUNNY   25  18  74 SW9       30.34F WCI  15
OELWEIN *      PTSUNNY   21  18  86 W13       30.31S WCI   9
WATERLOO       MOSUNNY   22  16  78 W9        30.33S WCI  12
6HR MIN TEMP:   6; 6HR MAX TEMP:  22;

$$

IAZ064-065-067-068-078-011900-
   EAST CENTRAL IOWA

CITY           SKY/WX    TMP DP  RH WIND       PRES   REMARKS
DAVENPORT      CLOUDY    21  15  78 W9        30.38S WCI  11
6HR MIN TEMP:  12; 6HR MAX TEMP:  21; 6HR PCP: TRACE;

IOWA CITY      MOSUNNY   24  17  74 SW9       30.38F WCI  14
6HR MIN TEMP:  13; 6HR MAX TEMP:  24;

MT. PLEASANT * CLOUDY    27  16  62 CALM      30.39F
MUSCATINE *    CLOUDY    25  18  74 SW6       30.39F WCI  18
QUAD CITIES    CLOUDY    25  15  66 W8        30.38S WCI  16
6HR MIN TEMP:  11; 6HR MAX TEMP:  25;

$$

IAZ062-063-075>077-085>089-095>099-011900-
   SOUTHEAST IOWA

CITY           SKY/WX    TMP DP  RH WIND       PRES   REMARKS
BURLINGTON     CLOUDY    24  17  74 NW7       30.38F WCI  16
6HR MIN TEMP:  18; 6HR MAX TEMP:  25; 6HR PCP:  0.08;

FAIRFIELD *    CLOUDY    23  19  86 NW8       30.38S WCI  14
FORT MADISON * MOSUNNY   25  18  74 NW3       30.40S
KEOKUK *       PTSUNNY   27  19  74 VRB6      30.39S WCI  20
OSKALOOSA *    CLOUDY    26  18  71 W9        30.38S WCI  17
CENTERVILLE *  MOSUNNY   25  19  80 W8        30.40R WCI  16
OTTUMWA        CLOUDY    25  17  72 W7        30.37F WCI  17
6HR MIN TEMP:  16; 6HR MAX TEMP:  25;

WASHINGTON *   CLOUDY    25  25 100 W6        30.37F WCI  18
$$

ABBREVIATIONS USED IN REMARKS
   TC - TEMPERATURES IN CELSIUS
  WCI - WIND CHILL INDEX
   HX - HEAT INDEX
  VSB - VISIBILITY
$$




USA.gov is the U.S. government's official web portal to all federal, state and local government web resources and services.